Temperature
18 17 17 17 17 17 17 17 17 17 17 17 17 17 17 17 17 17 17 16 16 16 16 16 16 16 16 16 16 16 16 16 16 16 16 16 16 16 16 16 16 16 16
17 17 17 17 17 17 17 17 17 17 17 17 17 17 17 17 17 16 16 16 16 16 16 16 16 16 16 16 16 16 16 16 15 16 16 16 16 16 16 16 16 16 16
17 17 17 17 17 17 17 17 17 17 17 17 16 16 17 17 16 16 16 16 16 16 16 16 16 16 16 16 16 16 15 15 15 15 15 15 16 16 16 16 16 16 16
17 17 17 16 16 16 17 16 16 16 16 16 16 16 16 16 16 16 16 16 16 16 16 16 16 16 16 15 15 15 15 15 15 15 15 15 15 15 15 15 15 15 15
17 17 17 16 16 16 16 16 16 16 16 16 16 16 16 16 16 16 16 16 16 16 16 15 15 15 15 15 15 15 15 15 15 15 15 15 15 15 15 15 15 15 15
17 17 17 16 16 16 16 16 16 16 16 16 16 16 16 16 16 16 16 15 15 15 15 15 15 15 15 15 15 15 15 14 14 14 14 14 14 14 14 14 14 14 14
16 16 16 16 16 16 16 16 16 16 16 16 15 15 15 15 15 15 15 15 15 15 15 15 14 14 14 14 14 14 14 14 14 13 13 13 13 13 13 13 13 13 13
16 16 16 16 16 16 16 16 16 15 15 15 15 15 15 15 15 15 15 15 15 14 14 14 14 14 14 14 14 13 13 13 13 13 13 13 13 13 12 12 12 12 12
16 16 16 16 16 15 15 15 15 15 15 15 15 15 15 14 14 14 14 14 14 14 14 14 14 13 13 13 13 13 13 13 12 12 12 12 12 12 12 12 12 12 12
15 15 15 15 15 15 15 15 15 14 14 14 14 14 14 14 14 14 14 14 14 13 13 13 13 13 13 13 12 12 12 12 12 12 12 12 12 11 11 11 11 11 10
15 15 15 15 14 14 14 14 14 14 14 14 14 14 13 13 13 13 13 13 13 13 12 12 12 12 12 12 12 12 12 11 11 11 11 11 11 11 10 10 10 10 10
14 14 14 14 14 14 14 14 14 14 13 13 13 13 13 13 13 13 12 12 12 12 12 12 12 11 11 11 11 11 11 11 11 11 11 10 10 10 10 9 9 9 9
14 14 14 14 13 13 13 13 13 13 13 13 13 12 12 12 12 12 12 12 11 11 11 11 11 11 11 11 10 10 10 10 10 10 10 9 9 9 9 9 9 9 9
14 13 13 13 13 13 13 12 12 12 12 12 12 11 11 11 11 11 11 11 11 10 10 10 10 10 10 10 10 9 9 9 9 9 9 8 8 8 8 8 8 8 8
13 13 13 13 12 12 12 12 12 11 11 11 11 11 11 11 10 10 10 10 10 10 10 9 9 9 9 9 8 8 8 8 8 8 8 8 8 8 7 7 7 7 7
13 12 12 12 12 12 12 11 11 11 11 10 10 10 10 10 9 9 9 9 9 9 9 9 9 8 8 8 8 7 7 7 7 7 7 7 7 7 6 6 6 6 6
12 12 12 12 11 11 11 11 11 10 10 10 10 9 9 9 9 9 9 9 8 8 8 8 8 7 7 7 7 7 6 6 6 6 6 6 6 6 6 6 5 5 5
12 12 12 11 11 11 11 10 10 10 9 9 9 9 9 8 8 8 8 8 8 8 8 7 7 7 6 6 6 6 6 5 5 5 5 5 5 5 5 5 5 5 5
11 11 11 11 11 10 10 10 10 9 9 9 8 8 8 8 7 7 7 7 7 7 6 6 6 6 6 5 5 5 5 5 4 4 4 4 4 4 4 4 4 4 4
11 11 11 10 10 10 9 9 9 9 8 8 8 7 7 7 7 7 7 6 6 6 6 6 5 5 5 5 4 4 4 4 4 4 4 4 4 4 4 4 4 4 3
10 10 10 10 9 9 9 9 8 8 8 7 7 7 7 7 6 6 6 6 5 5 5 5 5 5 4 4 4 4 4 4 3 3 3 3 3 3 3 3 3 3 3
9 9 9 9 9 8 8 8 8 7 7 7 6 6 6 6 6 5 5 5 5 5 4 4 4 4 4 4 3 3 3 3 3 3 3 3 3 3 3 3 3 3 3
9 9 8 8 8 7 7 7 7 7 6 6 6 6 5 5 5 5 5 5 4 4 4 4 4 3 3 3 3 3 3 3 3 3 3 3 3 2 2 2 2 2 2
8 8 8 7 7 7 7 6 6 6 5 5 5 5 5 5 4 4 4 4 4 4 3 3 3 3 3 3 3 3 3 3 3 3 3 2 2 2 2 2 2 2 2
7 7 7 7 6 6 6 5 5 5 5 4 4 4 4 4 4 4 4 4 3 3 3 3 3 3 3 3 3 3 3 3 3 3 3 2 2 2 2 2 2 2 2
6 6 6 6 5 5 5 5 4 4 4 4 4 4 3 3 3 3 3 3 3 3 3 3 3 3 2 2 2 2 2 2 2 2 2 2 2 2 2 2 2 2 2
Wind_Speed
6 5 5 6 6 6 7 8 7 7 8 8 8 8 8 8 7 7 7 7 8 7 6 7 7 5 4 4 3 3 4 4 5 4 2 2 3 4 4 6 7 8 9
5 5 5 5 5 6 6 6 7 7 7 8 7 7 8 7 7 8 8 8 8 8 7 7 6 5 5 4 4 5 5 5 5 5 3 2 4 3 3 3 4 5 7
5 5 4 4 5 5 5 5 6 7 7 6 7 7 7 7 7 7 8 8 8 8 7 7 6 5 5 4 4 5 4 4 4 4 4 2 2 2 2 2 3 3 5
5 5 5 5 5 5 4 5 5 6 6 6 6 6 6 6 6 6 6 6 6 5 5 5 5 6 6 5 4 5 4 4 3 4 4 3 2 2 1 2 3 2 3
5 5 5 4 4 4 3 4 4 4 5 4 5 4 4 4 5 6 6 6 6 5 4 4 4 5 5 5 4 4 4 3 3 3 4 2 2 2 3 2 3 3 3
5 5 4 4 4 3 3 3 3 3 4 4 4 3 3 3 5 7 6 5 5 5 4 3 3 3 4 5 5 5 5 4 4 4 4 4 4 3 2 2 2 2 3
5 4 4 4 4 4 4 4 4 3 3 3 3 3 3 3 5 6 6 5 4 3 3 2 2 1 1 1 2 2 3 5 6 5 5 5 4 3 3 3 3 4 4
4 4 5 5 5 5 5 5 4 4 4 4 3 3 4 3 4 5 6 5 4 3 2 2 2 1 1 1 2 1 1 2 2 3 4 4 3 2 3 3 4 4 4
4 4 4 6 6 6 5 5 4 5 5 5 5 5 5 4 5 4 4 4 3 2 2 2 1 0 1 1 1 1 0 1 1 0 1 1 1 1 0 0 1 2 3
4 5 5 6 6 6 6 5 5 6 5 6 6 6 5 4 5 5 4 3 3 3 3 3 3 2 2 1 1 1 1 1 1 2 2 2 2 2 1 1 2 2 3
6 6 6 6 7 6 6 6 6 7 7 7 8 7 7 6 7 7 5 4 4 4 3 3 3 5 5 4 3 2 1 1 1 2 2 3 3 2 2 2 2 3 4
8 8 8 7 7 7 8 7 7 7 7 7 7 7 6 6 7 8 8 7 6 5 4 3 5 8 8 7 5 5 5 4 2 3 3 3 3 3 4 4 4 4 5
9 9 9 9 8 8 8 8 7 6 6 6 6 6 5 5 6 9 10 10 10 7 6 8 9 9 8 7 8 8 6 4 3 3 3 3 3 4 4 4 4 4 5
11 9 9 10 10 9 8 7 7 6 6 6 6 6 5 5 5 5 5 6 8 7 6 8 9 10 8 8 7 6 5 4 4 3 3 3 4 4 4 4 4 4 4
11 10 10 9 10 10 10 9 8 7 5 6 5 5 5 5 5 6 6 5 4 5 5 6 6 6 7 6 6 6 5 5 5 4 4 4 4 4 4 4 4 4 4
10 9 8 8 8 9 10 11 16 13 14 13 11 9 8 8 9 12 12 12 10 8 7 7 6 6 6 6 5 5 5 5 5 4 4 4 5 5 5 5 5 5 5
10 9 7 8 8 8 8 9 9 11 15 16 15 14 12 11 12 12 12 13 12 10 8 7 6 6 5 5 5 5 5 5 5 5 5 5 5 5 5 5 6 6 6
9 9 8 7 7 7 7 7 7 8 8 8 10 13 13 12 12 11 10 10 9 9 7 6 5 5 5 5 5 5 5 6 5 5 5 5 5 5 6 6 6 7 7
8 7 7 7 7 7 7 7 8 8 8 7 6 7 10 11 12 12 10 8 7 6 6 5 5 4 4 5 5 5 5 5 6 5 5 6 6 6 6 6 7 8 7
8 11 10 8 8 7 7 7 7 7 7 6 6 4 4 5 7 7 7 6 5 5 4 4 4 4 5 5 5 5 5 5 6 5 6 6 6 5 6 7 7 7 7
8 9 11 9 8 7 7 7 7 7 7 6 5 5 5 5 5 6 5 5 5 4 4 4 4 4 4 4 5 5 6 5 6 6 6 6 6 6 6 6 7 7 7
8 7 7 7 7 7 7 7 7 7 7 7 5 6 8 6 5 5 5 4 4 4 4 3 4 4 4 5 5 5 5 6 6 6 6 6 6 6 7 7 7 7 7
8 9 8 7 7 8 8 7 6 6 6 6 5 5 5 5 5 4 4 4 4 5 5 5 4 5 6 6 6 5 5 6 6 6 6 6 6 6 6 7 8 8 8
8 8 8 7 7 6 6 6 6 6 5 5 5 4 4 4 4 4 4 4 4 5 5 5 5 7 8 8 7 7 7 8 9 7 7 6 7 6 6 7 7 8 8
8 8 7 7 6 6 6 6 5 5 4 4 4 4 4 4 4 4 4 4 4 5 6 6 7 8 9 10 9 10 12 12 10 8 7 6 6 7 7 7 7 8 7
7 7 6 6 6 5 5 5 4 4 4 3 3 3 3 3 3 3 3 4 4 4 5 6 8 9 10 10 11 13 13 13 12 11 8 6 6 6 7 6 8 7 7
Wind_Direction
177 181 182 186 189 189 197 203 201 195 189 188 188 189 193 193 191 194 204 198 198 200 199 200 207 200 198 202 199 202 207 198 227 257 249 252 248 255 255 243 246 244 247
176 175 178 179 179 188 198 202 195 191 187 187 182 187 194 195 192 195 206 201 197 199 200 198 207 201 201 205 203 211 215 210 218 245 255 244 244 255 256 254 255 252 249
170 173 174 178 185 197 200 193 187 186 182 179 180 190 195 194 192 195 198 198 196 197 193 196 203 197 210 212 210 214 217 215 214 229 251 247 255 270 272 271 269 268 264
168 174 181 189 197 200 192 183 181 177 177 181 185 189 191 190 191 189 185 183 183 186 187 190 193 198 211 211 214 218 213 207 208 223 245 254 256 262 248 255 269 262 267
169 178 189 186 187 181 175 174 169 166 174 172 172 177 180 183 188 177 177 179 179 178 180 187 194 196 203 208 216 219 209 213 217 229 246 255 255 245 245 241 253 271 269
168 179 173 161 159 161 169 162 151 153 154 147 155 163 171 184 161 160 167 175 176 178 188 193 201 211 220 219 221 217 205 210 221 226 240 245 257 252 255 243 248 262 272
162 161 152 146 144 146 144 132 138 141 129 133 147 152 145 132 138 143 150 158 158 168 180 189 213 233 207 225 230 229 229 229 217 218 234 243 252 246 236 246 240 244 255
147 151 146 140 135 129 124 123 122 118 116 114 110 109 103 85 106 129 136 139 138 144 153 169 179 207 241 213 214 229 239 251 241 228 238 250 256 253 228 239 249 259 266
132 133 131 130 127 121 119 116 110 107 102 94 89 88 87 64 64 88 121 125 124 112 94 82 95 78 358 121 178 209 172 347 8 139 196 292 325 345 140 189 258 261 272
120 117 116 118 119 117 114 106 98 100 100 95 82 76 80 68 61 78 111 114 107 88 67 54 49 43 27 106 158 172 189 306 359 37 35 12 5 14 68 199 238 263 274
104 103 101 102 107 108 103 97 99 98 93 89 82 68 64 60 60 67 87 103 114 102 80 58 44 56 64 73 91 87 56 40 44 42 33 19 13 3 348 313 268 248 259
91 90 89 89 97 99 96 90 90 97 93 86 85 73 56 52 57 64 75 82 90 93 82 67 57 57 61 60 65 56 56 63 57 48 34 13 0 351 338 326 308 283 265
89 87 87 86 82 84 89 91 87 86 92 90 89 82 65 52 51 61 67 70 74 81 77 69 61 59 60 57 50 50 51 48 41 34 15 353 341 333 335 333 333 324 306
91 87 86 88 83 75 73 76 83 84 91 92 91 88 76 59 49 52 60 68 70 75 74 64 60 59 57 49 42 41 42 43 43 27 4 349 349 350 350 343 332 333 322
92 89 86 86 89 81 72 63 72 63 77 95 93 92 88 75 54 68 79 73 75 82 81 64 54 49 46 41 37 34 31 31 29 18 8 359 353 350 344 340 331 328 320
98 94 93 93 92 93 92 77 59 66 65 68 76 87 78 81 82 75 71 67 65 74 75 66 56 48 44 36 30 26 24 18 11 5 4 358 349 343 338 337 333 326 319
103 103 100 99 100 98 97 98 91 69 62 60 62 70 77 79 76 74 74 69 60 63 69 65 57 47 40 33 26 20 11 3 1 2 358 351 343 337 332 330 328 322 316
97 98 100 99 100 101 100 100 100 99 87 66 54 61 69 72 69 67 70 71 60 55 60 58 49 40 32 24 17 11 5 1 0 357 353 347 342 335 330 325 322 318 313
95 96 94 93 94 96 97 97 96 95 93 87 77 61 60 69 65 58 61 68 69 61 53 48 40 31 23 16 10 4 0 356 353 349 346 343 339 334 328 324 320 318 314
87 94 95 95 94 93 93 96 95 94 90 84 78 69 57 64 66 57 56 60 62 56 48 41 32 25 18 13 7 1 356 352 348 345 339 336 332 328 324 322 322 321 318
90 89 88 90 91 93 95 96 97 96 93 85 71 59 69 77 73 65 59 52 49 45 39 36 29 21 14 7 1 356 352 345 342 339 335 331 328 326 322 320 321 321 319
95 92 89 91 91 90 92 92 94 94 92 86 76 67 65 71 69 62 55 46 40 35 32 31 27 18 9 0 353 347 343 340 338 335 330 327 327 328 327 326 326 324 322
94 95 92 90 93 92 90 89 90 91 87 83 79 73 67 66 63 59 53 44 36 31 26 24 19 10 5 359 354 345 334 329 325 321 320 320 323 324 324 323 322 324 325
95 96 96 94 93 92 93 91 90 90 88 84 79 74 67 62 60 54 45 38 35 30 24 20 13 4 358 355 351 347 340 331 324 316 313 310 314 316 318 320 321 324 323
94 96 97 98 97 97 96 95 93 90 87 84 79 72 63 58 52 43 33 28 25 23 17 13 6 359 354 352 350 344 340 340 337 329 316 308 308 312 318 321 322 323 326
95 97 97 97 98 100 102 101 97 93 90 84 75 67 60 52 43 35 26 19 12 8 4 1 357 355 351 350 347 345 345 345 342 337 323 310 312 318 325 323 325 327 329
Height
1489 1491 1493 1496 1499 1502 1504 1507 1510 1513 1516 1519 1522 1525 1529 1532 1534 1536 1538 1540 1542 1544 1545 1547 1548 1550 1551 1552 1553 1554 1554 1555 1555 1555 1556 1556 1556 1557 1557 1557 1557 1557 1557
1487 1489 1491 1494 1497 1499 1502 1504 1507 1509 1512 1515 1519 1522 1525 1528 1530 1532 1534 1536 1538 1540 1542 1544 1545 1546 1547 1548 1549 1550 1550 1551 1551 1551 1551 1552 1552 1552 1552 1552 1552 1552 1553
1486 1488 1490 1492 1494 1496 1499 1501 1504 1506 1508 1512 1515 1518 1521 1524 1526 1528 1530 1532 1534 1536 1538 1540 1541 1542 1543 1544 1545 1546 1546 1546 1547 1547 1547 1547 1547 1548 1547 1547 1548 1547 1547
1484 1486 1488 1490 1492 1494 1497 1499 1501 1503 1505 1508 1511 1514 1517 1519 1522 1524 1526 1528 1530 1532 1534 1536 1537 1538 1539 1540 1541 1541 1542 1542 1542 1542 1542 1543 1543 1543 1542 1542 1542 1542 1542
1483 1485 1486 1489 1491 1493 1495 1497 1499 1501 1503 1506 1508 1510 1513 1515 1517 1520 1522 1524 1526 1528 1530 1532 1533 1534 1535 1536 1537 1537 1537 1537 1537 1537 1538 1538 1538 1538 1538 1537 1537 1537 1536
1481 1483 1485 1487 1489 1491 1493 1495 1497 1499 1502 1504 1506 1508 1510 1512 1514 1516 1518 1520 1522 1524 1526 1527 1529 1530 1531 1531 1532 1533 1533 1533 1533 1533 1533 1533 1533 1533 1533 1533 1532 1531 1530
1480 1482 1484 1486 1488 1489 1491 1493 1496 1498 1500 1502 1504 1506 1508 1510 1512 1513 1515 1517 1518 1520 1522 1523 1525 1525 1526 1527 1528 1528 1528 1529 1529 1529 1528 1528 1528 1528 1528 1528 1527 1526 1525
1479 1481 1483 1485 1486 1489 1491 1492 1495 1497 1499 1501 1503 1504 1506 1507 1509 1511 1512 1514 1515 1517 1519 1520 1521 1521 1522 1522 1523 1523 1524 1524 1524 1524 1524 1524 1524 1524 1523 1523 1522 1521 1520
1478 1480 1482 1484 1486 1488 1490 1491 1494 1496 1498 1499 1501 1503 1504 1506 1507 1509 1510 1511 1513 1514 1515 1517 1517 1518 1518 1518 1519 1519 1519 1519 1519 1519 1520 1520 1519 1519 1519 1518 1517 1516 1514
1478 1479 1481 1484 1485 1487 1489 1491 1494 1495 1497 1499 1501 1502 1504 1505 1507 1508 1509 1510 1510 1511 1513 1514 1515 1515 1515 1516 1516 1516 1516 1516 1517 1516 1516 1516 1516 1515 1514 1514 1513 1512 1510
1478 1480 1482 1484 1485 1488 1490 1492 1494 1496 1498 1499 1500 1502 1503 1505 1506 1507 1508 1509 1509 1510 1511 1512 1512 1513 1513 1513 1513 1513 1513 1514 1514 1513 1512 1512 1512 1512 1511 1510 1509 1508 1506
1479 1480 1482 1484 1487 1489 1491 1493 1495 1497 1498 1499 1500 1502 1503 1504 1505 1506 1507 1508 1509 1510 1510 1511 1511 1511 1511 1511 1511 1511 1511 1511 1510 1510 1509 1509 1509 1508 1507 1506 1505 1503 1502
1481 1482 1484 1486 1488 1491 1492 1494 1496 1498 1499 1500 1502 1503 1504 1505 1506 1507 1508 1508 1509 1509 1510 1510 1511 1510 1510 1510 1510 1509 1509 1508 1508 1507 1506 1506 1505 1504 1503 1501 1500 1499 1497
1483 1485 1487 1489 1491 1492 1494 1496 1498 1499 1501 1502 1503 1504 1505 1506 1507 1508 1508 1509 1509 1509 1510 1510 1510 1510 1509 1509 1508 1508 1507 1506 1505 1505 1504 1503 1502 1500 1499 1497 1495 1494 1492
1486 1488 1489 1491 1493 1495 1496 1499 1500 1502 1503 1505 1505 1506 1507 1508 1509 1509 1509 1510 1510 1510 1510 1510 1509 1509 1508 1508 1507 1506 1506 1504 1503 1503 1501 1500 1498 1497 1495 1493 1491 1489 1487
1489 1491 1492 1494 1496 1498 1499 1501 1503 1505 1506 1507 1508 1509 1509 1510 1510 1511 1511 1511 1510 1510 1510 1509 1509 1509 1508 1507 1507 1506 1505 1503 1502 1501 1499 1497 1495 1493 1491 1490 1488 1486 1483
1492 1494 1495 1497 1499 1501 1503 1504 1505 1508 1509 1510 1511 1511 1512 1512 1513 1512 1512 1512 1512 1511 1510 1509 1509 1509 1508 1507 1506 1505 1504 1502 1501 1499 1497 1495 1493 1491 1489 1487 1484 1482 1480
1496 1498 1499 1501 1503 1505 1506 1508 1509 1510 1511 1512 1513 1513 1514 1514 1514 1513 1513 1513 1512 1512 1511 1510 1510 1509 1508 1507 1506 1505 1503 1501 1499 1497 1495 1493 1491 1488 1486 1484 1481 1479 1476
1500 1501 1503 1504 1506 1508 1509 1510 1512 1513 1514 1514 1515 1515 1516 1516 1515 1515 1515 1514 1513 1512 1512 1511 1511 1510 1509 1507 1506 1504 1502 1500 1498 1496 1493 1491 1489 1486 1483 1481 1478 1475 1472
1504 1505 1506 1508 1509 1511 1512 1513 1514 1515 1516 1517 1517 1517 1518 1518 1517 1517 1516 1515 1515 1514 1513 1512 1511 1510 1508 1507 1505 1503 1501 1499 1497 1494 1491 1489 1486 1483 1481 1478 1475 1472 1469
1506 1508 1510 1511 1512 1513 1514 1515 1516 1517 1518 1518 1519 1519 1520 1519 1518 1518 1517 1516 1516 1515 1514 1512 1511 1510 1508 1506 1504 1502 1500 1498 1495 1492 1489 1486 1484 1481 1478 1475 1472 1469 1466
1509 1510 1512 1513 1515 1516 1517 1518 1519 1519 1520 1520 1520 1521 1520 1520 1519 1519 1518 1517 1516 1515 1514 1512 1511 1509 1507 1505 1503 1501 1498 1496 1493 1490 1487 1484 1482 1479 1476 1473 1471 1468 1465
1512 1513 1515 1516 1517 1518 1519 1520 1520 1521 1521 1521 1522 1521 1521 1521 1520 1519 1519 1518 1517 1515 1514 1512 1511 1509 1506 1504 1502 1499 1496 1494 1491 1488 1485 1483 1480 1477 1475 1472 1470 1467 1464
1515 1516 1517 1518 1519 1520 1521 1521 1522 1522 1522 1522 1522 1522 1522 1521 1521 1520 1519 1518 1517 1515 1514 1512 1510 1508 1506 1503 1501 1498 1495 1492 1489 1487 1484 1482 1479 1476 1474 1471 1469 1466 1463
1517 1518 1519 1520 1520 1521 1522 1522 1522 1523 1523 1523 1523 1523 1522 1522 1521 1520 1519 1518 1516 1515 1513 1511 1509 1507 1504 1502 1499 1496 1494 1491 1488 1486 1483 1481 1478 1475 1473 1470 1467 1464 1462
1519 1520 1521 1521 1522 1522 1523 1523 1524 1524 1524 1524 1523 1523 1523 1522 1521 1520 1519 1517 1516 1514 1512 1510 1508 1506 1503 1500 1498 1495 1493 1490 1487 1485 1482 1479 1477 1474 1472 1469 1467 1464 1461